GFSFLT2_sfc_30mbdewp_123.txt.gz
Dewpoint
68 69 70 70 70 70 70 70 70 70 70 70 70 70 69 68 69 69 69 69 68 67 67 66 66 66 65 64 63 63 63 63
67 68 69 69 70 69 68 69 70 70 70 69 69 69 69 68 68 69 68 68 68 67 66 66 66 66 65 64 63 62 61 63
66 67 67 68 68 69 69 69 69 69 69 69 69 68 69 68 68 68 68 67 67 67 66 66 66 66 65 63 62 62 58 62
66 66 66 67 67 69 69 69 69 69 69 69 69 68 68 68 68 68 67 66 66 65 65 65 65 64 64 63 62 61 60 61
65 66 66 67 67 67 67 67 67 68 68 68 68 68 67 67 67 67 67 66 65 65 64 64 64 63 63 61 61 61 62 61
64 65 65 66 66 65 65 65 66 66 67 66 67 67 67 66 66 66 66 65 64 64 63 63 63 63 61 61 61 61 62 61
64 65 65 65 65 66 65 65 65 65 66 67 67 66 66 66 65 65 65 64 64 63 62 62 62 62 61 60 61 61 61 61
63 64 64 65 65 64 65 65 66 66 66 67 67 67 66 66 65 64 64 63 63 63 62 61 61 61 61 60 61 61 61 60
65 64 64 64 64 64 64 64 65 65 65 66 67 66 66 65 65 64 64 63 62 62 61 61 60 61 61 61 61 61 60 59
65 65 64 64 64 65 64 64 65 64 65 65 66 66 66 65 64 64 64 63 62 62 61 60 60 60 60 61 61 61 60 60
62 65 65 65 65 65 65 65 65 65 65 65 65 66 66 65 64 64 63 63 62 61 61 60 60 60 60 60 61 61 60 60
60 64 65 65 65 64 64 65 65 66 65 65 65 65 66 65 65 64 63 62 62 62 61 61 61 60 60 60 60 61 60 60
59 60 63 65 64 63 63 64 64 65 66 65 65 66 65 65 65 64 63 62 61 61 60 60 60 61 59 59 59 60 60 60
54 58 61 64 64 63 63 64 64 65 65 66 65 66 65 65 64 64 64 63 61 61 61 60 60 61 58 57 55 56 58 59
45 55 59 62 63 63 62 62 62 63 64 64 65 65 65 65 64 64 63 63 61 61 61 60 58 60 59 55 53 51 54 58
58 59 60 62 63 63 62 61 61 62 62 64 64 65 65 65 64 64 64 63 62 62 62 61 59 58 59 58 55 53 51 51
47 49 50 53 56 59 60 60 61 61 61 62 62 64 64 64 64 64 63 63 63 62 61 60 59 58 58 57 56 54 54 52
43 43 44 45 47 47 48 49 51 57 60 61 61 62 63 63 64 63 63 62 62 62 61 60 59 58 58 56 55 54 53 53
42 42 42 43 43 43 44 45 46 48 53 59 60 60 61 62 63 63 62 62 61 61 60 60 59 58 57 57 56 56 55 54
40 40 39 40 40 41 42 42 43 46 51 55 60 60 61 62 62 62 62 61 60 60 60 59 58 58 57 56 56 56 57 55

GFSFLT2_sfc_30mbdewp_126.txt.gz
Dewpoint
67 68 69 69 70 71 70 69 69 69 70 70 70 69 68 69 69 69 69 69 68 67 67 66 66 66 66 63 63 64 63 63
67 68 68 69 70 70 69 69 69 69 69 69 69 68 68 68 69 69 69 68 67 67 66 66 66 66 64 64 63 63 62 63
66 66 67 67 68 69 69 69 69 69 69 69 68 68 68 68 68 68 68 68 67 66 65 66 65 65 64 63 62 61 61 62
64 65 66 66 67 68 68 69 69 69 69 69 68 68 68 68 68 68 67 67 67 66 65 65 65 65 64 63 62 61 60 61
63 64 65 65 65 66 66 67 67 67 68 68 68 67 67 67 67 67 67 66 66 66 65 65 64 64 63 62 61 61 59 60
63 64 64 64 65 65 65 66 66 67 67 67 67 67 66 66 66 66 66 65 65 64 63 63 63 63 62 61 61 61 61 61
63 64 64 64 65 65 65 65 65 66 66 67 67 65 66 66 65 65 65 65 64 63 62 62 62 62 62 61 60 60 61 61
63 64 64 64 64 64 64 64 64 64 65 66 66 66 65 66 65 65 64 64 64 63 62 61 61 62 61 60 60 60 60 61
62 63 64 64 64 64 64 64 64 63 64 65 65 65 65 64 64 64 64 63 63 62 61 61 60 61 60 60 60 60 60 60
62 62 63 63 64 64 64 64 64 63 64 64 64 64 65 64 64 64 63 63 62 62 61 60 60 60 60 60 60 60 60 60
64 62 62 63 63 63 63 63 64 64 64 65 64 64 65 65 64 63 63 62 62 61 60 60 59 59 59 60 60 61 61 61
63 64 63 62 63 64 64 64 64 64 64 64 65 65 65 64 64 63 63 63 62 61 61 60 60 60 60 60 60 61 61 60
61 64 64 64 63 63 63 62 63 64 64 64 64 64 65 65 64 63 63 62 62 62 61 60 60 61 59 59 59 60 60 60
59 61 64 64 64 63 62 63 64 64 65 65 64 64 64 65 65 63 63 62 62 61 61 60 60 61 58 57 55 56 59 60
55 59 61 64 64 64 62 63 63 63 64 64 65 65 65 64 64 64 63 63 62 61 62 61 59 60 59 56 53 50 53 57
49 58 60 62 63 63 62 62 61 62 63 64 65 65 65 65 64 64 63 63 62 61 62 61 60 58 60 58 54 52 50 50
51 53 54 58 62 62 61 61 61 61 62 62 62 64 65 65 64 64 64 64 63 62 61 61 60 59 59 58 56 54 54 52
43 44 45 47 50 52 55 57 59 60 59 54 55 59 63 64 64 64 64 64 63 62 62 61 61 60 59 58 57 56 54 53
41 41 41 43 44 45 46 46 48 52 57 58 57 60 61 63 63 64 64 63 63 62 62 61 61 60 59 58 57 56 55 54
39 39 39 40 41 41 41 42 42 44 46 49 56 59 60 61 62 63 63 63 62 62 61 61 61 60 59 58 57 57 56 54

GFSFLT2_sfc_30mbdewp_129.txt.gz
Dewpoint
69 69 69 70 70 70 69 69 69 69 70 70 71 70 70 70 70 70 70 69 68 67 67 67 67 65 64 64 64 64 64 63
68 69 70 69 70 70 69 68 68 69 69 69 69 69 69 69 69 70 70 68 67 66 66 66 66 66 64 63 63 63 63 63
67 68 68 69 69 69 69 68 68 68 68 69 68 68 68 68 68 69 69 68 66 66 66 66 66 65 64 63 62 61 63 63
65 66 67 67 67 68 69 68 67 68 68 68 68 68 67 67 68 68 68 67 66 66 65 65 65 65 64 63 63 62 62 63
65 65 66 65 65 67 68 68 68 68 68 68 68 68 68 67 68 68 68 67 66 64 64 64 65 65 64 64 63 63 62 63
64 64 65 65 65 65 66 66 67 67 67 68 68 67 68 67 66 68 67 66 66 65 65 64 64 65 64 64 63 63 62 61
62 63 64 64 65 65 65 65 66 66 66 67 67 66 66 67 67 67 67 66 65 65 64 63 63 63 63 63 62 62 62 62
62 62 63 63 64 65 64 65 66 66 66 66 67 66 66 66 66 66 67 66 66 65 64 63 63 63 63 63 62 62 62 62
61 62 62 63 63 64 64 64 64 65 65 66 66 66 65 65 65 66 66 67 66 65 64 63 63 63 62 62 62 62 61 61
59 62 63 63 63 63 63 64 64 64 64 64 66 66 65 65 64 65 66 67 66 65 64 63 62 62 62 62 62 62 61 61
58 61 62 63 64 63 63 63 63 63 63 63 65 65 65 65 64 64 66 65 65 65 64 63 62 62 61 61 62 62 61 61
61 60 61 63 63 63 63 62 62 63 62 63 64 64 64 64 65 65 65 65 64 64 63 63 62 62 60 60 61 61 62 63
62 61 60 62 62 62 61 61 62 63 63 64 65 64 63 64 64 65 65 64 63 63 63 62 62 62 60 59 60 61 61 62
61 63 62 61 60 61 61 62 62 62 63 63 64 64 65 65 64 64 64 63 63 62 62 61 61 61 59 58 56 58 59 60
58 62 63 62 61 61 61 63 63 63 62 62 63 64 64 64 64 64 64 64 62 62 62 62 60 61 61 58 55 52 55 58
54 60 62 64 63 63 62 61 60 61 61 63 63 64 64 64 65 64 64 64 63 63 63 63 62 59 60 60 56 55 52 51
53 60 62 64 64 64 63 62 63 63 63 63 64 64 65 64 64 64 64 64 64 63 63 63 63 61 60 59 58 55 55 52
50 51 50 52 58 62 63 63 62 62 63 62 62 63 60 58 58 57 62 64 64 64 63 63 63 62 61 60 58 56 55 54
43 45 44 44 45 46 48 51 55 58 60 61 60 59 59 57 57 59 62 64 64 64 63 63 63 62 61 60 59 58 57 56
39 39 39 40 41 42 42 43 45 46 48 49 55 59 60 61 61 61 63 64 64 63 63 62 63 62 61 61 60 59 58 56

GFSFLT2_sfc_30mbdewp_132.txt.gz
Dewpoint
69 68 69 70 70 69 69 69 70 70 71 71 71 71 70 70 71 70 70 69 68 67 67 67 66 65 65 64 64 64 60 59
68 68 68 68 68 69 68 68 69 70 70 70 70 70 70 70 70 70 69 68 67 67 67 66 65 65 64 64 63 63 58 59
67 67 67 67 68 68 68 68 68 69 69 70 69 67 68 69 68 70 69 67 67 66 66 66 66 64 63 63 63 57 58 58
65 66 66 66 65 67 67 66 66 66 66 68 66 65 66 66 67 69 68 67 66 66 66 66 65 63 63 63 60 58 59 58
63 65 66 65 64 66 65 65 65 65 65 66 65 65 65 65 66 67 66 66 63 64 65 63 61 60 60 60 59 61 58 58
62 63 65 65 62 65 66 65 64 64 65 66 65 65 65 65 65 65 64 64 62 61 60 60 61 62 61 61 62 60 58 58
60 62 63 64 64 62 64 64 65 64 65 68 66 65 65 64 64 64 64 63 62 62 61 61 62 62 61 61 61 61 60 58
57 60 63 63 63 63 64 66 64 65 65 67 68 65 65 65 65 64 65 65 63 62 61 61 60 60 61 61 60 59 60 60
51 60 62 63 64 63 64 64 65 66 66 67 67 66 65 65 65 64 64 65 64 63 62 62 60 60 60 61 60 61 59 60
48 56 60 62 63 62 62 62 65 65 65 66 67 66 65 65 65 65 63 67 65 64 63 62 61 60 59 59 60 60 60 61
37 53 59 61 62 62 62 61 64 64 65 65 66 67 66 65 65 65 65 66 65 64 63 62 61 60 60 60 61 61 61 60
28 48 58 61 62 63 62 61 63 62 63 64 65 66 66 65 64 65 65 63 64 65 64 63 62 61 60 60 62 61 60 61
23 38 57 61 62 62 61 61 62 61 61 62 62 64 65 65 64 64 66 62 62 64 64 63 63 62 62 61 61 62 62 61
22 31 55 60 61 62 61 60 59 60 61 61 62 64 64 64 64 62 63 62 63 63 63 63 62 63 60 60 58 59 61 61
24 26 49 58 59 60 60 60 58 58 58 59 61 63 64 64 65 62 62 63 63 63 63 62 61 62 62 58 56 52 54 58
24 27 44 56 59 58 58 58 55 55 57 58 59 62 62 64 64 64 64 64 63 63 64 63 62 60 62 62 59 56 52 52
25 27 39 54 60 59 59 57 57 56 57 58 61 62 62 63 64 65 64 64 64 64 63 63 63 62 61 61 61 59 57 54
38 37 39 52 61 61 61 59 58 59 63 63 63 63 64 65 64 63 62 61 58 59 63 64 63 64 62 61 60 58 57 56
50 49 47 50 53 56 62 63 64 63 63 63 63 63 62 61 62 59 59 60 57 57 60 62 63 63 63 62 61 60 58 57
40 41 42 43 45 46 48 51 55 55 56 61 62 62 63 63 61 60 59 59 59 61 61 62 63 63 63 62 62 61 60 59